Time,TemperatureF,DewpointF,PressureIn,WindDirection,WindDirectionDegrees,WindSpeedMPH,WindSpeedGustMPH,Humidity,HourlyPrecipIn,Conditions,Clouds,dailyrainin,SoftwareType,DateUTC
2013-02-17 00:01:00,40.0,29.0,-100.00,ENE,70,2.0,7.0,64,-99.99,,,-99.99,,2013-02-17 08:01:00,
2013-02-17 01:01:00,40.0,29.0,-100.00,NE,45,6.0,9.0,64,-99.99,,,-99.99,,2013-02-17 09:01:00,
2013-02-17 01:11:00,40.0,29.0,-100.00,NE,45,6.0,9.0,64,-99.99,,,-99.99,,2013-02-17 09:11:00,
2013-02-17 02:01:00,38.0,28.0,-100.00,SSE,150,2.0,5.0,66,-99.99,,,-99.99,,2013-02-17 10:01:00,
2013-02-17 03:01:00,37.0,27.0,-100.00,North,360,1.0,3.0,66,-99.99,,,-99.99,,2013-02-17 11:01:00,
2013-02-17 03:11:00,37.0,27.0,-100.00,North,360,1.0,3.0,66,-99.99,,,-99.99,,2013-02-17 11:11:00,
2013-02-17 04:03:00,36.0,26.0,-100.00,South,170,3.0,6.0,66,-99.99,,,-99.99,,2013-02-17 12:03:00,
2013-02-17 05:02:00,32.0,26.0,-100.00,ESE,110,2.0,3.0,78,-99.99,,,-99.99,,2013-02-17 13:02:00,
2013-02-17 05:10:00,32.0,26.0,-100.00,NNE,15,0.0,3.0,78,-99.99,,,-99.99,,2013-02-17 13:10:00,
2013-02-17 05:12:00,32.0,26.0,-100.00,ESE,110,2.0,3.0,78,-99.99,,,-99.99,,2013-02-17 13:12:00,
2013-02-17 06:01:00,32.0,26.0,-100.00,NNE,15,0.0,3.0,78,-99.99,,,-99.99,,2013-02-17 14:01:00,
2013-02-17 06:10:00,31.0,25.0,-100.00,South,180,0.0,1.0,78,-99.99,,,-99.99,,2013-02-17 14:10:00,
2013-02-17 07:01:00,31.0,25.0,-100.00,South,180,0.0,1.0,78,-99.99,,,-99.99,,2013-02-17 15:01:00,
2013-02-17 08:01:00,30.0,24.0,-100.00,NNE,20,1.0,3.0,78,-99.99,,,-99.99,,2013-02-17 16:01:00,
2013-02-17 08:10:00,34.0,26.0,-100.00,North,5,6.0,10.0,72,-99.99,,,-99.99,,2013-02-17 16:10:00,
2013-02-17 09:00:00,39.0,27.0,-100.00,South,180,9.0,13.0,61,-99.99,,,-99.99,,2013-02-17 17:00:00,
2013-02-17 09:02:00,34.0,26.0,-100.00,North,5,6.0,10.0,72,-99.99,,,-99.99,,2013-02-17 17:02:00,
2013-02-17 10:10:00,45.0,26.0,-100.00,SSE,150,7.0,12.0,47,-99.99,,,-99.99,,2013-02-17 18:10:00,
2013-02-17 11:01:00,45.0,26.0,-100.00,SSE,150,7.0,12.0,47,-99.99,,,-99.99,,2013-02-17 19:01:00,
2013-02-17 11:20:00,49.0,26.0,-100.00,SE,135,7.0,13.0,40,-99.99,,,-99.99,,2013-02-17 19:20:00,
2013-02-17 12:01:00,49.0,26.0,-100.00,SE,135,7.0,13.0,40,-99.99,,,-99.99,,2013-02-17 20:01:00,
2013-02-17 12:10:00,52.0,23.0,-100.00,ESE,120,12.0,17.0,31,-99.99,,,-99.99,,2013-02-17 20:10:00,
2013-02-17 12:11:00,49.0,26.0,-100.00,SE,135,7.0,13.0,40,-99.99,,,-99.99,,2013-02-17 20:11:00,
2013-02-17 13:01:00,52.0,23.0,-100.00,ESE,120,12.0,17.0,31,-99.99,,,-99.99,,2013-02-17 21:01:00,
2013-02-17 14:01:00,52.0,21.0,-100.00,SSE,150,12.0,15.0,29,-99.99,,,-99.99,,2013-02-17 22:01:00,
2013-02-17 14:10:00,51.0,22.0,-100.00,SSE,155,7.0,15.0,31,-99.99,,,-99.99,,2013-02-17 22:10:00,
2013-02-17 14:12:00,52.0,21.0,-100.00,SSE,150,12.0,15.0,29,-99.99,,,-99.99,,2013-02-17 22:12:00,
2013-02-17 15:02:00,51.0,22.0,-100.00,SSE,155,7.0,15.0,31,-99.99,,,-99.99,,2013-02-17 23:02:00,
2013-02-17 16:01:00,52.0,21.0,-100.00,ESE,115,9.0,14.0,29,-99.99,,,-99.99,,2013-02-18 00:01:00,
2013-02-17 16:11:00,52.0,21.0,-100.00,ESE,115,9.0,14.0,29,-99.99,,,-99.99,,2013-02-18 00:11:00,
2013-02-17 17:01:00,50.0,21.0,-100.00,SE,135,7.0,10.0,31,-99.99,,,-99.99,,2013-02-18 01:01:00,
2013-02-17 18:01:00,46.0,21.0,-100.00,South,170,6.0,10.0,36,-99.99,,,-99.99,,2013-02-18 02:01:00,
2013-02-17 18:11:00,46.0,21.0,-100.00,South,170,6.0,10.0,36,-99.99,,,-99.99,,2013-02-18 02:11:00,
2013-02-17 19:01:00,44.0,21.0,-100.00,South,170,6.0,10.0,39,-99.99,,,-99.99,,2013-02-18 03:01:00,
2013-02-17 20:01:00,40.0,24.0,-100.00,SE,125,3.0,6.0,52,-99.99,,,-99.99,,2013-02-18 04:01:00,
2013-02-17 20:11:00,40.0,24.0,-100.00,SE,125,3.0,6.0,52,-99.99,,,-99.99,,2013-02-18 04:11:00,
2013-02-17 21:01:00,40.0,22.0,-100.00,SSE,165,3.0,6.0,48,-99.99,,,-99.99,,2013-02-18 05:01:00,
2013-02-17 22:02:00,40.0,23.0,-100.00,SSE,160,3.0,7.0,50,-99.99,,,-99.99,,2013-02-18 06:02:00,
2013-02-17 22:11:00,40.0,23.0,-100.00,SSE,160,3.0,7.0,50,-99.99,,,-99.99,,2013-02-18 06:11:00,
2013-02-17 23:01:00,40.0,24.0,-100.00,SE,140,7.0,12.0,52,-99.99,,,-99.99,,2013-02-18 07:01:00,
2013-02-17 23:10:00,38.0,24.0,-100.00,South,175,3.0,8.0,56,-99.99,,,-99.99,,2013-02-18 07:10:00,